Epoch,demod_status_bits,ebno,lock_status,signal_level,viterbi_ber
1665213393,C;S;V;F,13.0,0x00c000,-38.6,4.54e-7
1665213394,C;S;V;F,12.9,0x00c000,-38.1,4.54e-7
1665213395,C;S;V;F,13.0,0x00c000,-38.2,3.03e-7
1665213396,C;S;V;F,13.1,0x00c000,-38.3,1.51e-7
1665213397,C;S;V;F,13.2,0x00c000,-38.1,0.00e-0
1665213398,,13.0,0x00c000,-38.1,
1665213399,C;S;V;F,13.3,0x00c000,-37.9,0.00e-0
1665213400,C;S;V;F,13.3,0x00c000,-38.0,0.00e-0
1665213401,C;S;V;F,13.3,0x00c000,-38.0,0.00e-0
1665213402,C;S;V;F,13.4,0x00c000,-38.0,0.00e-0
1665213403,C;S;V;F,,0x00c000,-38.0,0.00e-0
1665213404,C;S;V;F,13.5,0x00c000,-37.9,0.00e-0
1665213405,C;S;V;F,13.6,0x00c000,,0.00e-0
1665213406,C;S;V;F,13.4,0x00c000,-38.0,0.00e-0
1665213407,C;S;V;F,13.6,0x00c000,-37.7,0.00e-0
1665213408,C;S;V;F,13.7,0x00c000,-37.9,0.00e-0
1665213409,C;S;V;F,13.8,0x00c000,-37.9,0.00e-0
1665213410,C;S;V;F,13.7,0x00c000,-37.7,0.00e-0
1665213411,C;S;V;F,13.7,0x00c000,-37.6,0.00e-0
1665213412,C;S;V;F,13.9,0x00c000,-37.5,0.00e-0
1665213413,C;S;V;F,14.0,0x00c000,-37.6,0.00e-0
1665213414,C;S;V;F,13.7,0x00c000,-37.4,0.00e-0
1665213415,C;S;V;F,14.0,0x00c000,-37.4,
1665213416,,13.9,0x00c000,-37.4,0.00e-0
1665213417,C;S;V;F,14.1,0x00c000,-37.2,0.00e-0
1665213418,C;S;V;F,14.2,0x00c000,-37.4,0.00e-0
1665213419,C;S;V;F,14.2,0x00c000,-37.3,0.00e-0
1665213420,C;S;V;F,,0x00c000,-37.2,0.00e-0
1665213421,C;S;V;F,14.4,0x00c000,,0.00e-0
1665213422,C;S;V;F,14.2,0x00c000,-37.4,0.00e-0
1665213423,C;S;V;F,14.5,0x00c000,-37.2,0.00e-0
1665213424,C;S;V;F,14.2,0x00c000,-37.1,0.00e-0
1665213425,C;S;V;F,14.3,0x00c000,-37.0,0.00e-0
1665213426,C;S;V;F,14.6,0x00c000,-37.0,0.00e-0
1665213427,C;S;V;F,14.6,0x00c000,-36.8,0.00e-0
1665213428,,14.7,0x00c000,-37.0,
1665213429,C;S;V;F,14.5,0x00c000,-36.9,0.00e-0
1665213430,C;S;V;F,14.5,0x00c000,-36.9,0.00e-0
1665213431,C;S;V;F,,0x00c000,-36.8,0.00e-0
1665213432,C;S;V;F,14.6,0x00c000,-36.8,0.00e-0
1665213433,C;S;V;F,14.7,0x00c000,-36.8,0.00e-0
1665213434,C;S;V;F,14.7,0x00c000,,0.00e-0
1665213435,C;S;V;F,14.7,0x00c000,-36.8,0.00e-0
1665213436,C;S;V;F,14.8,0x00c000,-36.8,0.00e-0
1665213437,C;S;V;F,14.7,0x00c000,-36.7,0.00e-0
1665213438,C;S;V;F,15.0,0x00c000,-36.8,0.00e-0
1665213439,C;S;V;F,15.0,0x00c000,-36.5,0.00e-0
1665213440,C;S;V;F,14.9,0x00c000,-36.6,0.00e-0
1665213441,C;S;V;F,14.9,0x00c000,-36.4,
1665213442,C;S;V;F,15.1,0x00c000,-36.5,0.00e-0
1665213443,,15.0,0x00c000,-36.6,0.00e-0
1665213444,C;S;V;F,15.1,0x00c000,-36.6,0.00e-0
1665213445,C;S;V;F,15.1,0x00c000,-36.4,0.00e-0
1665213446,C;S;V;F,,0x00c000,-36.4,0.00e-0
1665213447,C;S;V;F,15.0,0x00c000,-36.4,0.00e-0
1665213448,C;S;V;F,15.0,0x00c000,,0.00e-0
1665213450,C;S;V;F,15.3,0x00c000,-36.2,
1665213451,,15.4,0x00c000,-36.3,0.00e-0
1665213452,C;S;V;F,15.4,0x00c000,-36.3,0.00e-0
1665213453,C;S;V;F,15.4,0x00c000,-36.3,0.00e-0
1665213454,C;S;V;F,15.4,0x00c000,-36.2,0.00e-0
1665213455,C;S;V;F,,0x00c000,-36.0,0.00e-0
1665213456,C;S;V;F,15.5,0x00c000,,0.00e-0
1665213457,C;S;V;F,15.6,0x00c000,-36.1,0.00e-0
1665213458,C;S;V;F,15.7,0x00c000,-36.0,0.00e-0
1665213459,C;S;V;F,15.6,0x00c000,-36.0,0.00e-0
1665213460,C;S;V;F,15.6,0x00c000,-35.9,0.00e-0
1665213461,C;S;V;F,15.7,0x00c000,-36.0,0.00e-0
1665213462,C;S;V;F,15.7,0x00c000,-35.9,0.00e-0
1665213463,C;S;V;F,15.8,0x00c000,-36.0,0.00e-0
1665213464,C;S;V;F,15.8,0x00c000,-35.9,0.00e-0
1665213465,C;S;V;F,15.7,0x00c000,-36.0,
1665213466,,15.7,0x00c000,-35.9,0.00e-0
1665213467,C;S;V;F,15.8,0x00c000,-35.9,0.00e-0
1665213468,C;S;V;F,15.9,0x00c000,-35.7,0.00e-0
1665213469,C;S;V;F,,0x00c000,-35.9,0.00e-0
1665213470,C;S;V;F,16.1,0x00c000,-35.7,0.00e-0
1665213471,C;S;V;F,16.0,0x00c000,-35.9,0.00e-0
1665213472,C;S;V;F,15.9,0x00c000,,0.00e-0
1665213473,C;S;V;F,15.9,0x00c000,-35.7,0.00e-0
1665213474,C;S;V;F,16.0,0x00c000,-35.7,0.00e-0
1665213475,C;S;V;F,16.3,0x00c000,-35.6,0.00e-0
1665213476,C;S;V;F,16.1,0x00c000,-35.5,0.00e-0
1665213477,C;S;V;F,16.1,0x00c000,-35.6,0.00e-0
1665213478,C;S;V;F,16.2,0x00c000,-35.5,0.00e-0
1665213479,C;S;V;F,16.3,0x00c000,-35.5,0.00e-0
1665213480,C;S;V;F,16.2,0x00c000,-35.5,0.00e-0
1665213481,C;S;V;F,16.3,0x00c000,-35.5,0.00e-0
1665213482,,16.3,0x00c000,-35.3,
1665213483,C;S;V;F,16.3,0x00c000,-35.3,0.00e-0
1665213484,C;S;V;F,16.3,0x00c000,-35.1,0.00e-0
1665213485,C;S;V;F,16.7,0x00c000,-35.1,0.00e-0
1665213486,C;S;V;F,,0x00c000,-35.1,0.00e-0
1665213487,C;S;V;F,16.5,0x00c000,,0.00e-0
1665213488,C;S;V;F,16.6,0x00c000,-35.1,0.00e-0
1665213489,C;S;V;F,16.6,0x00c000,-34.9,0.00e-0
1665213490,C;S;V;F,16.6,0x00c000,-34.8,0.00e-0
1665213491,C;S;V;F,16.6,0x00c000,-34.8,0.00e-0
1665213492,C;S;V;F,16.8,0x00c000,-35.0,0.00e-0
1665213493,C;S;V;F,16.8,0x00c000,-34.8,0.00e-0
1665213494,C;S;V;F,17.0,0x00c000,-34.8,
1665213495,C;S;V;F,16.8,0x00c000,-34.8,0.00e-0
1665213496,,16.8,0x00c000,-34.7,0.00e-0
1665213497,C;S;V;F,16.8,0x00c000,-34.8,0.00e-0
1665213498,C;S;V;F,16.9,0x00c000,-34.8,0.00e-0
1665213499,C;S;V;F,,0x00c000,-34.8,0.00e-0
1665213500,C;S;V;F,16.8,0x00c000,-34.8,0.00e-0
1665213501,C;S;V;F,16.8,0x00c000,,0.00e-0
1665213502,C;S;V;F,16.9,0x00c000,-34.8,0.00e-0
1665213503,C;S;V;F,16.7,0x00c000,-34.9,0.00e-0
1665213504,C;S;V;F,16.5,0x00c000,-34.8,0.00e-0
1665213505,C;S;V;F,16.8,0x00c000,-35.0,0.00e-0
1665213506,C;S;V;F,16.4,0x00c000,-35.0,0.00e-0
1665213507,C;S;V;F,16.7,0x00c000,-35.3,0.00e-0
1665213508,C;S;V;F,16.4,0x00c000,-35.2,0.00e-0
1665213509,C;S;V;F,16.2,0x00c000,-35.2,
1665213510,,16.6,0x00c000,-35.2,0.00e-0
1665213511,C;S;V;F,,,,0.00e-0
1665213513,C;S;V;F,16.4,0x00c000,-35.1,0.00e-0
1665213514,C;S;V;F,16.6,0x00c000,-35.2,0.00e-0
1665213515,,16.6,0x00c000,-35.1,
1665213516,C;S;V;F,16.6,0x00c000,-35.3,0.00e-0
1665213517,C;S;V;F,,0x00c000,-35.2,0.00e-0
1665213518,C;S;V;F,16.2,0x00c000,-35.2,0.00e-0
1665213519,C;S;V;F,16.2,0x00c000,,0.00e-0
1665213520,C;S;V;F,16.5,0x00c000,-35.3,0.00e-0
1665213521,C;S;V;F,16.4,0x00c000,-35.3,0.00e-0
1665213522,C;S;V;F,16.6,0x00c000,-35.5,0.00e-0
1665213523,C;S;V;F,16.4,0x00c000,-35.4,0.00e-0
1665213524,C;S;V;F,16.5,0x00c000,-35.2,0.00e-0
1665213525,C;S;V;F,16.5,0x00c000,-35.3,0.00e-0
1665213526,C;S;V;F,16.4,0x00c000,-35.4,0.00e-0
1665213527,C;S;V;F,16.3,0x00c000,-35.4,0.00e-0
1665213528,C;S;V;F,16.4,0x00c000,-35.4,
1665213529,,16.3,0x00c000,-35.5,0.00e-0
1665213530,C;S;V;F,16.5,0x00c000,-35.1,0.00e-0
1665213531,C;S;V;F,16.7,0x00c000,-35.1,0.00e-0
1665213532,C;S;V;F,,0x00c000,-35.1,0.00e-0
1665213533,C;S;V;F,16.7,0x00c000,,0.00e-0
1665213534,C;S;V;F,16.8,0x00c000,-34.9,0.00e-0
1665213535,C;S;V;F,16.9,0x00c000,-35.0,0.00e-0
1665213536,C;S;V;F,17.0,0x00c000,-34.9,0.00e-0
1665213537,C;S;V;F,16.9,0x00c000,-34.9,0.00e-0
1665213538,C;S;V;F,17.0,0x00c000,-34.9,0.00e-0
1665213539,C;S;V;F,16.9,0x00c000,-35.0,0.00e-0
1665213543,,16.8,0x00c000,-34.9,
1665213544,C;S;V;F,16.5,0x00c000,-35.1,0.00e-0
1665213545,C;S;V;F,,0x00c000,-35.0,0.00e-0
1665213546,C;S;V;F,16.8,0x00c000,,0.00e-0
1665213547,C;S;V;F,17.0,0x00c000,-34.9,0.00e-0
1665213548,C;S;V;F,16.7,0x00c000,-35.0,0.00e-0
1665213549,C;S;V;F,16.9,0x00c000,-35.0,0.00e-0
1665213550,C;S;V;F,16.7,0x00c000,-35.1,
1665213551,,16.7,0x00c000,-35.0,0.00e-0
1665213552,C;S;V;F,16.6,0x00c000,-35.1,0.00e-0
1665213553,C;S;V;F,16.7,0x00c000,-35.2,0.00e-0
1665213554,C;S;V;F,16.8,0x00c000,-35.2,0.00e-0
1665213555,C;S;V;F,,0x00c000,-35.1,0.00e-0
1665213556,C;S;V;F,16.8,0x00c000,-35.2,0.00e-0
1665213557,C;S;V;F,16.7,0x00c000,,0.00e-0
1665213558,C;S;V;F,16.7,0x00c000,-35.3,0.00e-0
1665213559,C;S;V;F,16.7,0x00c000,-35.2,0.00e-0
1665213560,C;S;V;F,16.4,0x00c000,-35.5,0.00e-0
1665213561,C;S;V;F,16.6,0x00c000,-35.2,0.00e-0
1665213562,C;S;V;F,16.6,0x00c000,-35.6,0.00e-0
1665213563,C;S;V;F,16.6,0x00c000,-35.5,0.00e-0
1665213564,C;S;V;F,16.4,0x00c000,-35.5,0.00e-0
1665213565,C;S;V;F,16.5,0x00c000,-35.5,0.00e-0
1665213566,C;S;V;F,16.3,0x00c000,-35.6,
1665213567,,16.4,0x00c000,-35.6,0.00e-0
1665213568,C;S;V;F,16.5,0x00c000,-35.6,0.00e-0
1665213569,C;S;V;F,16.5,0x00c000,-35.5,0.00e-0
1665213570,C;S;V;F,,0x00c000,-35.6,0.00e-0
1665213571,C;S;V;F,16.3,0x00c000,,0.00e-0
1665213572,C;S;V;F,16.5,0x00c000,-35.5,0.00e-0
1665213573,C;S;V;F,16.7,0x00c000,-35.3,0.00e-0
1665213575,C;S;V;F,16.5,0x00c000,-35.4,0.00e-0
1665213576,C;S;V;F,16.5,0x00c000,-35.6,0.00e-0
1665213577,C;S;V;F,16.6,0x00c000,-35.4,0.00e-0
1665213578,,16.5,0x00c000,-35.4,
1665213579,C;S;V;F,16.4,0x00c000,-35.4,0.00e-0
1665213580,C;S;V;F,16.7,0x00c000,-35.2,0.00e-0
1665213581,C;S;V;F,16.6,0x00c000,-35.1,0.00e-0
1665213582,C;S;V;F,,0x00c000,-35.1,0.00e-0
1665213583,C;S;V;F,16.8,0x00c000,-35.0,0.00e-0
1665213584,C;S;V;F,17.1,0x00c000,,0.00e-0
1665213585,C;S;V;F,16.7,0x00c000,-35.1,0.00e-0
1665213586,C;S;V;F,16.9,0x00c000,-34.9,0.00e-0
1665213587,C;S;V;F,16.8,0x00c000,-34.9,0.00e-0
1665213588,C;S;V;F,16.8,0x00c000,-34.8,0.00e-0
1665213589,C;S;V;F,16.9,0x00c000,-35.2,0.00e-0
1665213590,C;S;V;F,16.9,0x00c000,-35.1,0.00e-0
1665213591,C;S;V;F,16.7,0x00c000,-35.2,0.00e-0
1665213592,C;S;V;F,16.7,0x00c000,-35.3,0.00e-0
1665213593,C;S;V;F,16.6,0x00c000,-35.2,0.00e-0
1665213594,C;S;V;F,16.4,0x00c000,-35.2,
1665213595,,16.7,0x00c000,-35.2,0.00e-0
1665213596,C;S;V;F,16.5,0x00c000,-35.5,0.00e-0
1665213597,C;S;V;F,16.5,0x00c000,-35.3,0.00e-0
1665213598,C;S;V;F,,0x00c000,-35.4,0.00e-0
1665213599,C;S;V;F,16.6,0x00c000,-35.2,0.00e-0
1665213600,C;S;V;F,16.6,0x00c000,-35.2,0.00e-0
1665213601,C;S;V;F,16.8,0x00c000,,0.00e-0
1665213602,C;S;V;F,16.7,0x00c000,-35.2,0.00e-0
1665213603,C;S;V;F,16.9,0x00c000,-35.1,0.00e-0
1665213604,C;S;V;F,16.8,0x00c000,-35.2,0.00e-0
1665213605,C;S;V;F,16.7,0x00c000,-35.2,0.00e-0
1665213606,C;S;V;F,17.0,0x00c000,-35.0,0.00e-0
1665213607,C;S;V;F,16.9,0x00c000,-35.1,0.00e-0
1665213608,C;S;V;F,16.9,0x00c000,-35.1,0.00e-0
1665213609,C;S;V;F,16.9,0x00c000,-35.3,0.00e-0
1665213610,C;S;V;F,16.8,0x00c000,-35.4,
1665213611,,16.5,0x00c000,-35.6,0.00e-0
1665213612,C;S;V;F,16.2,0x00c000,-35.7,0.00e-0
1665213613,C;S;V;F,16.2,0x00c000,-36.3,0.00e-0
1665213614,C;S;V;F,,0x00c000,-36.5,0.00e-0
1665213615,C;S;V;F,15.9,0x00c000,-36.6,0.00e-0
1665213616,C;S;V;F,15.5,0x00c000,,0.00e-0
1665213617,C;S;V;F,15.4,0x00c000,-36.8,0.00e-0
1665213618,C;S;V;F,15.4,0x00c000,-36.8,0.00e-0
1665213619,C;S;V;F,15.4,0x00c000,-37.0,0.00e-0
1665213620,C;S;V;F,15.5,0x00c000,-36.7,0.00e-0
1665213621,C;S;V;F,15.5,0x00c000,-36.5,0.00e-0
1665213622,C;S;V;F,15.7,0x00c000,-36.6,0.00e-0
1665213623,C;S;V;F,15.6,0x00c000,-36.4,0.00e-0
1665213624,C;S;V;F,15.5,0x00c000,-36.7,0.00e-0
1665213625,C;S;V;F,15.8,0x00c000,-36.7,0.00e-0
1665213626,,15.8,0x00c000,-36.6,
1665213627,C;S;V;F,15.8,0x00c000,-36.4,0.00e-0
1665213628,C;S;V;F,15.8,0x00c000,-36.3,0.00e-0
1665213629,C;S;V;F,15.9,0x00c000,-36.0,0.00e-0
1665213630,C;S;V;F,,0x00c000,-36.3,0.00e-0
1665213631,C;S;V;F,16.1,0x00c000,-36.2,0.00e-0
1665213632,C;S;V;F,16.2,0x00c000,,0.00e-0
1665213633,C;S;V;F,15.9,0x00c000,-36.3,0.00e-0
1665213634,C;S;V;F,15.7,0x00c000,-36.3,0.00e-0
1665213635,C;S;V;F,15.7,0x00c000,-36.4,0.00e-0
1665213636,C;S;V;F,15.9,0x00c000,-36.3,0.00e-0
1665213638,,,0x00c000,-36.0,
1665213639,C;S;V;F,16.0,0x00c000,,0.00e-0
1665213640,C;S;V;F,16.2,0x00c000,-36.0,0.00e-0
1665213641,C;S;V;F,15.9,0x00c000,-35.9,0.00e-0
1665213642,C;S;V;F,15.9,0x00c000,-35.8,0.00e-0
1665213643,C;S;V;F,16.1,0x00c000,-35.6,0.00e-0
1665213644,C;S;V;F,16.4,0x00c000,-35.4,0.00e-0
1665213645,C;S;V;F,16.4,0x00c000,-35.4,0.00e-0
1665213646,C;S;V;F,16.6,0x00c000,-35.5,0.00e-0
1665213647,C;S;V;F,16.7,0x00c000,-35.6,
1665213648,,16.4,0x00c000,-35.6,0.00e-0
1665213649,C;S;V;F,16.5,0x00c000,-35.7,0.00e-0
1665213650,C;S;V;F,16.2,0x00c000,-36.3,0.00e-0
1665213651,C;S;V;F,,0x00c000,-36.3,0.00e-0
1665213652,C;S;V;F,15.8,0x00c000,-36.3,0.00e-0
1665213653,C;S;V;F,16.0,0x00c000,-36.0,0.00e-0
1665213654,C;S;V;F,16.0,0x00c000,,0.00e-0
1665213655,C;S;V;F,16.0,0x00c000,-35.9,0.00e-0
1665213656,C;S;V;F,16.5,0x00c000,-35.5,0.00e-0
1665213657,C;S;V;F,17.1,0x00c000,-34.7,0.00e-0
1665213658,C;S;V;F,17.4,0x00c000,-34.7,0.00e-0
1665213659,,17.7,0x00c000,-34.3,
1665213660,C;S;V;F,17.6,0x00c000,-34.3,0.00e-0
1665213661,C;S;V;F,,,,0.00e-0
1665213662,C;S;V;F,17.6,0x00c000,-34.4,0.00e-0
1665213663,C;S;V;F,17.2,0x00c000,-34.9,0.00e-0
1665213664,C;S;V;F,16.9,0x00c000,-35.2,0.00e-0
1665213665,C;S;V;F,16.9,0x00c000,-35.2,0.00e-0
1665213666,C;S;V;F,16.8,0x00c000,-35.4,
1665213667,,16.8,0x00c000,-34.9,0.00e-0
1665213668,C;S;V;F,17.1,0x00c000,-34.5,0.00e-0
1665213669,C;S;V;F,17.3,0x00c000,-34.4,0.00e-0
1665213670,C;S;V;F,,0x00c000,-34.7,0.00e-0
1665213671,C;S;V;F,17.5,0x00c000,-34.8,0.00e-0
1665213672,C;S;V;F,17.3,0x00c000,,0.00e-0
1665213673,C;S;V;F,16.5,0x00c000,-35.1,0.00e-0
1665213674,C;S;V;F,16.1,0x00c000,-35.9,0.00e-0
1665213675,C;S;V;F,15.9,0x00c000,-36.3,0.00e-0
1665213676,C;S;V;F,15.8,0x00c000,-36.4,0.00e-0
1665213677,C;S;V;F,15.6,0x00c000,-36.4,0.00e-0
1665213678,C;S;V;F,15.6,0x00c000,-36.3,0.00e-0
1665213679,C;S;V;F,16.1,0x00c000,-36.4,0.00e-0
1665213680,C;S;V;F,15.9,0x00c000,-36.4,0.00e-0
1665213681,C;S;V;F,15.7,0x00c000,-36.5,0.00e-0
1665213682,C;S;V;F,15.4,0x00c000,-36.8,0.00e-0
1665213683,C;S;V;F,15.2,0x00c000,-37.2,0.00e-0
1665213684,C;S;V;F,15.1,0x00c000,-37.3,0.00e-0
1665213685,,15.0,0x00c000,-37.1,
1665213686,C;S;V;F,15.3,0x00c000,-36.6,0.00e-0
1665213687,C;S;V;F,16.1,0x00c000,-36.1,0.00e-0
1665213688,C;S;V;F,16.4,0x00c000,-35.5,0.00e-0
1665213689,C;S;V;F,,0x00c000,-35.5,0.00e-0
1665213690,C;S;V;F,16.5,0x00c000,-35.6,0.00e-0
1665213691,C;S;V;F,16.7,0x00c000,-35.9,0.00e-0
1665213692,C;S;V;F,16.2,0x00c000,,0.00e-0
1665213693,C;S;V;F,15.8,0x00c000,-36.3,0.00e-0
1665213694,C;S;V;F,15.7,0x00c000,-36.6,0.00e-0
1665213695,C;S;V;F,15.7,0x00c000,-36.5,0.00e-0
1665213696,C;S;V;F,16.0,0x00c000,-36.4,0.00e-0
1665213697,C;S;V;F,16.2,0x00c000,-36.3,0.00e-0
1665213698,C;S;V;F,16.1,0x00c000,-36.1,0.00e-0
1665213700,C;S;V;F,15.6,0x00c000,-36.9,0.00e-0
1665213701,,15.1,0x00c000,-37.4,
1665213702,C;S;V;F,15.1,0x00c000,-37.4,0.00e-0
1665213703,C;S;V;F,14.8,0x00c000,-37.4,0.00e-0
1665213704,C;S;V;F,,0x00c000,-37.1,0.00e-0
1665213705,C;S;V;F,15.3,0x00c000,,0.00e-0
1665213706,C;S;V;F,15.1,0x00c000,-37.0,0.00e-0
1665213707,C;S;V;F,15.1,0x00c000,-37.4,0.00e-0
1665213708,C;S;V;F,14.3,0x00c000,-37.8,0.00e-0
1665213709,C;S;V;F,14.2,0x00c000,-38.1,0.00e-0
1665213710,C;S;V;F,14.0,0x00c000,-38.0,0.00e-0
1665213711,C;S;V;F,14.5,0x00c000,-37.9,0.00e-0
1665213712,C;S;V;F,14.7,0x00c000,-37.5,0.00e-0
1665213713,C;S;V;F,14.8,0x00c000,-37.2,0.00e-0
1665213714,C;S;V;F,15.2,0x00c000,-36.9,
1665213715,,15.1,0x00c000,-36.8,0.00e-0
1665213716,C;S;V;F,15.3,0x00c000,-37.2,0.00e-0
1665213717,C;S;V;F,14.9,0x00c000,-37.4,0.00e-0
1665213718,C;S;V;F,14.6,0x00c000,-37.6,0.00e-0
1665213719,C;S;V;F,,0x00c000,-37.6,0.00e-0
1665213720,C;S;V;F,14.8,0x00c000,,0.00e-0
1665213721,C;S;V;F,15.1,0x00c000,-37.3,0.00e-0
1665213722,C;S;V;F,15.4,0x00c000,-37.0,0.00e-0
1665213723,C;S;V;F,15.5,0x00c000,-36.7,0.00e-0
1665213724,C;S;V;F,15.7,0x00c000,-36.7,0.00e-0
1665213725,C;S;V;F,15.7,0x00c000,-36.6,0.00e-0
1665213726,C;S;V;F,15.6,0x00c000,-36.5,0.00e-0
1665213727,C;S;V;F,15.6,0x00c000,-36.5,0.00e-0
1665213728,C;S;V;F,15.3,0x00c000,-36.7,0.00e-0
1665213729,C;S;V;F,15.1,0x00c000,-37.2,0.00e-0
1665213730,C;S;V;F,15.3,0x00c000,-37.1,
1665213731,C;S;V;F,15.4,0x00c000,-36.9,0.00e-0
1665213732,,15.3,0x00c000,-37.0,0.00e-0
1665213733,C;S;V;F,15.4,0x00c000,-36.9,0.00e-0
1665213734,C;S;V;F,15.1,0x00c000,-36.9,0.00e-0
1665213735,C;S;V;F,15.2,0x00c000,-37.1,0.00e-0
1665213736,C;S;V;F,,0x00c000,-37.3,0.00e-0
1665213737,C;S;V;F,15.0,0x00c000,,0.00e-0
1665213738,C;S;V;F,14.9,0x00c000,-37.2,0.00e-0
1665213739,C;S;V;F,15.0,0x00c000,-36.8,0.00e-0
1665213740,C;S;V;F,15.6,0x00c000,-36.4,0.00e-0
1665213741,C;S;V;F,16.1,0x00c000,-36.4,0.00e-0
1665213742,C;S;V;F,15.9,0x00c000,-36.3,0.00e-0
1665213743,C;S;V;F,15.3,0x00c000,-36.7,0.00e-0
1665213744,C;S;V;F,14.8,0x00c000,-37.4,0.00e-0
1665213745,C;S;V;F,14.4,0x00c000,-38.0,0.00e-0
1665213746,,14.3,0x00c000,-37.8,
1665213747,C;S;V;F,15.1,0x00c000,-37.5,0.00e-0
1665213748,C;S;V;F,15.5,0x00c000,-36.5,0.00e-0
1665213749,C;S;V;F,,0x00c000,-35.6,0.00e-0
1665213750,C;S;V;F,16.3,0x00c000,-35.6,0.00e-0
1665213751,C;S;V;F,16.5,0x00c000,,0.00e-0
1665213752,C;S;V;F,16.4,0x00c000,-35.7,0.00e-0
1665213753,C;S;V;F,16.2,0x00c000,-35.9,0.00e-0
1665213754,C;S;V;F,16.2,0x00c000,-35.6,0.00e-0
1665213755,C;S;V;F,16.5,0x00c000,-35.5,0.00e-0
1665213756,C;S;V;F,16.8,0x00c000,-34.9,0.00e-0
1665213757,C;S;V;F,16.8,0x00c000,-35.2,0.00e-0
1665213758,C;S;V;F,16.7,0x00c000,-35.7,0.00e-0
1665213759,,16.0,0x00c000,-35.9,
1665213760,C;S;V;F,15.7,0x00c000,-36.0,0.00e-0
1665213761,C;S;V;F,15.8,0x00c000,-36.0,0.00e-0
1665213762,C;S;V;F,,0x00c000,,0.00e-0
1665213764,C;S;V;F,15.1,0x00c000,-37.3,0.00e-0
1665213765,C;S;V;F,14.7,0x00c000,-37.6,0.00e-0
1665213766,C;S;V;F,14.9,0x00c000,-37.5,
1665213767,,15.0,0x00c000,-37.2,0.00e-0
1665213768,C;S;V;F,15.4,0x00c000,-36.8,0.00e-0
1665213769,C;S;V;F,15.6,0x00c000,-36.5,0.00e-0
1665213770,C;S;V;F,,0x00c000,-36.4,0.00e-0
1665213771,C;S;V;F,15.7,0x00c000,-36.4,0.00e-0
1665213772,C;S;V;F,15.7,0x00c000,,0.00e-0
1665213773,C;S;V;F,15.8,0x00c000,-36.5,0.00e-0
1665213774,C;S;V;F,15.7,0x00c000,-36.5,0.00e-0
1665213775,C;S;V;F,15.5,0x00c000,-37.1,0.00e-0
1665213776,C;S;V;F,15.2,0x00c000,-37.1,0.00e-0
1665213777,C;S;V;F,15.1,0x00c000,-37.0,0.00e-0
1665213778,C;S;V;F,15.1,0x00c000,-37.0,0.00e-0
1665213779,C;S;V;F,15.0,0x00c000,-37.3,
1665213780,,14.7,0x00c000,-37.6,0.00e-0
1665213781,C;S;V;F,14.8,0x00c000,-37.8,0.00e-0
1665213782,C;S;V;F,,0x00c000,-37.0,0.00e-0
1665213783,C;S;V;F,14.9,0x00c000,-37.1,0.00e-0
1665213784,C;S;V;F,14.9,0x00c000,-37.3,0.00e-0
1665213785,C;S;V;F,14.5,0x00c000,,0.00e-0
1665213786,C;S;V;F,13.7,0x00c000,-38.4,0.00e-0
1665213787,C;S;V;F,13.9,0x00c000,-38.3,0.00e-0
1665213788,C;S;V;F,14.7,0x00c000,-37.7,0.00e-0
1665213789,C;S;V;F,15.5,0x00c000,-36.8,0.00e-0
1665213790,C;S;V;F,15.5,0x00c000,-36.5,0.00e-0
1665213791,C;S;V;F,15.2,0x00c000,-37.1,0.00e-0
1665213792,C;S;V;F,14.9,0x00c000,-37.5,0.00e-0
1665213793,C;S;V;F,15.1,0x00c000,-37.2,
1665213794,,15.6,0x00c000,-36.8,0.00e-0
1665213795,C;S;V;F,15.2,0x00c000,-37.2,0.00e-0
1665213796,C;S;V;F,15.2,0x00c000,-37.0,0.00e-0
1665213797,C;S;V;F,15.5,0x00c000,-36.1,0.00e-0
1665213798,C;S;V;F,,0x00c000,-34.9,0.00e-0
1665213799,C;S;V;F,16.5,0x00c000,-34.8,0.00e-0
1665213800,C;S;V;F,17.0,0x00c000,,0.00e-0
1665213801,C;S;V;F,17.1,0x00c000,-34.9,0.00e-0
1665213802,C;S;V;F,16.9,0x00c000,-35.2,0.00e-0
1665213803,C;S;V;F,17.1,0x00c000,-34.7,0.00e-0
1665213804,C;S;V;F,17.3,0x00c000,-34.3,0.00e-0
1665213805,C;S;V;F,17.7,0x00c000,-33.9,0.00e-0
1665213806,C;S;V;F,17.8,0x00c000,-34.0,0.00e-0
1665213807,C;S;V;F,17.6,0x00c000,-34.3,0.00e-0
1665213808,,17.7,0x00c000,-34.0,
1665213809,C;S;V;F,17.9,0x00c000,-33.7,0.00e-0
1665213810,C;S;V;F,18.0,0x00c000,-33.6,0.00e-0
1665213811,C;S;V;F,18.1,0x00c000,-33.5,0.00e-0
1665213812,C;S;V;F,,0x00c000,-33.1,0.00e-0
1665213813,C;S;V;F,18.2,0x00c000,-33.1,0.00e-0
1665213814,C;S;V;F,18.2,0x00c000,,0.00e-0
1665213815,C;S;V;F,18.2,0x00c000,-33.1,0.00e-0
1665213816,C;S;V;F,18.2,0x00c000,-33.4,0.00e-0
1665213817,C;S;V;F,18.2,0x00c000,-33.2,0.00e-0
1665213818,C;S;V;F,18.2,0x00c000,-33.0,0.00e-0
1665213819,C;S;V;F,18.1,0x00c000,-33.1,0.00e-0
1665213820,C;S;V;F,17.9,0x00c000,-34.0,0.00e-0
1665213821,C;S;V;F,17.8,0x00c000,-34.2,0.00e-0
1665213822,C;S;V;F,17.4,0x00c000,-34.3,0.00e-0
1665213823,C;S;V;F,17.8,0x00c000,-33.9,0.00e-0
1665213824,,18.1,0x00c000,-34.0,
1665213825,C;S;V;F,,,,0.00e-0
1665213827,C;S;V;F,16.7,0x00c000,-35.6,0.00e-0
1665213828,C;S;V;F,17.7,0x00c000,-34.0,0.00e-0
1665213829,C;S;V;F,18.2,0x00c000,-33.5,0.00e-0
1665213830,C;S;V;F,17.6,0x00c000,-33.9,
1665213831,C;S;V;F,16.9,0x00c000,-35.3,0.00e-0
1665213832,,16.9,0x00c000,-36.0,0.00e-0
1665213833,C;S;V;F,16.5,0x00c000,-35.6,0.00e-0
1665213834,C;S;V;F,17.0,0x00c000,-34.7,0.00e-0
1665213835,C;S;V;F,17.3,0x00c000,-34.5,0.00e-0
1665213836,C;S;V;F,,0x00c000,-35.1,0.00e-0
1665213837,C;S;V;F,17.3,0x00c000,-36.3,0.00e-0
1665213838,C;S;V;F,16.7,0x00c000,,0.00e-0
1665213839,C;S;V;F,15.8,0x00c000,-36.4,0.00e-0
1665213840,C;S;V;F,16.3,0x00c000,-35.5,0.00e-0
1665213841,C;S;V;F,17.1,0x00c000,-34.0,0.00e-0
1665213842,C;S;V;F,17.9,0x00c000,-34.0,0.00e-0
1665213846,,15.7,0x00c000,-35.8,
1665213847,C;S;V;F,17.1,0x00c000,-35.0,0.00e-0
1665213848,C;S;V;F,,0x00c000,-35.6,0.00e-0
1665213849,C;S;V;F,16.7,0x00c000,-37.4,0.00e-0
1665213850,C;S;V;F,15.5,0x00c000,,0.00e-0
1665213851,C;S;V;F,14.2,0x00c000,-38.6,0.00e-0
1665213852,C;S;V;F,13.8,0x00c000,-38.4,0.00e-0
1665213853,C;S;V;F,15.1,0x00c000,-36.3,0.00e-0
1665213854,C;S;V;F,16.6,0x00c000,-35.1,0.00e-0
1665213855,C;S;V;F,17.5,0x00c000,-34.6,0.00e-0
1665213856,C;S;V;F,17.1,0x00c000,-35.5,0.00e-0
1665213857,C;S;V;F,15.8,0x00c000,-36.7,0.00e-0
1665213858,C;S;V;F,14.4,0x00c000,-38.4,0.00e-0
1665213859,C;S;V;F,14.1,0x00c000,-37.9,0.00e-0
1665213860,,15.2,0x00c000,-36.8,
1665213861,C;S;V;F,16.7,0x00c000,-35.7,0.00e-0
1665213862,C;S;V;F,16.6,0x00c000,-35.4,0.00e-0
1665213863,C;S;V;F,,0x00c000,-36.3,0.00e-0
1665213864,C;S;V;F,15.8,0x00c000,,0.00e-0
1665213865,C;S;V;F,14.5,0x00c000,-37.4,0.00e-0
1665213866,C;S;V;F,12.9,0x00c000,-39.4,0.00e-0
1665213867,C;S;V;F,12.9,0x00c000,-39.3,4.54e-7
1665213868,C;S;V;F,13.3,0x00c000,-38.4,3.03e-7
1665213869,C;S;V;F,16.0,0x00c000,-36.5,0.00e-0
1665213870,C;S;V;F,17.1,0x00c000,-34.8,0.00e-0
1665213871,C;S;V;F,17.4,0x00c000,-34.5,0.00e-0
1665213872,C;S;V;F,17.1,0x00c000,-34.8,0.00e-0
1665213873,C;S;V;F,16.1,0x00c000,-36.2,0.00e-0
1665213874,C;S;V;F,14.6,0x00c000,-37.6,
1665213875,C;S;V;F,13.4,0x00c000,-39.3,0.00e-0
1665213876,,13.3,0x00c000,-39.0,0.00e-0
1665213877,C;S;V;F,14.5,0x00c000,-37.9,0.00e-0
1665213878,C;S;V;F,15.6,0x00c000,-36.2,0.00e-0
1665213879,C;S;V;F,,0x00c000,-35.5,0.00e-0
1665213880,C;S;V;F,16.3,0x00c000,-35.3,0.00e-0
1665213881,C;S;V;F,16.5,0x00c000,-36.2,0.00e-0
1665213882,C;S;V;F,16.4,0x00c000,,0.00e-0
1665213883,C;S;V;F,15.6,0x00c000,-37.2,0.00e-0
1665213884,C;S;V;F,14.9,0x00c000,-37.9,0.00e-0
1665213885,C;S;V;F,14.9,0x00c000,-37.7,0.00e-0
1665213886,C;S;V;F,15.6,0x00c000,-36.5,0.00e-0
1665213887,C;S;V;F,16.2,0x00c000,-35.9,0.00e-0
1665213889,,,0x00c000,-34.8,
1665213890,C;S;V;F,16.9,0x00c000,,0.00e-0
1665213891,C;S;V;F,16.2,0x00c000,-35.5,0.00e-0
1665213892,C;S;V;F,15.5,0x00c000,-36.5,0.00e-0
1665213893,C;S;V;F,14.7,0x00c000,-37.5,0.00e-0
1665213894,C;S;V;F,14.3,0x00c000,-38.1,
1665213895,,14.4,0x00c000,-37.9,0.00e-0
1665213896,C;S;V;F,15.2,0x00c000,-37.1,0.00e-0
1665213897,C;S;V;F,15.5,0x00c000,-36.3,0.00e-0
1665213898,C;S;V;F,,0x00c000,-35.6,0.00e-0
1665213899,C;S;V;F,16.3,0x00c000,-35.2,0.00e-0
1665213900,C;S;V;F,16.6,0x00c000,,0.00e-0
1665213901,C;S;V;F,16.8,0x00c000,-35.2,0.00e-0
1665213902,C;S;V;F,16.6,0x00c000,-35.6,0.00e-0
1665213903,C;S;V;F,16.3,0x00c000,-36.4,0.00e-0
1665213904,C;S;V;F,15.8,0x00c000,-36.7,0.00e-0
1665213905,C;S;V;F,15.2,0x00c000,-37.0,0.00e-0
1665213906,C;S;V;F,15.0,0x00c000,-37.0,0.00e-0
1665213907,C;S;V;F,15.5,0x00c000,-36.7,0.00e-0
1665213908,C;S;V;F,15.6,0x00c000,-36.3,0.00e-0
1665213909,C;S;V;F,16.3,0x00c000,-35.9,0.00e-0
1665213910,C;S;V;F,16.6,0x00c000,-35.4,0.00e-0
1665213911,,16.9,0x00c000,-34.9,
1665213912,C;S;V;F,17.1,0x00c000,-34.7,0.00e-0
1665213913,C;S;V;F,17.0,0x00c000,-34.8,0.00e-0
1665213914,C;S;V;F,,0x00c000,-34.9,0.00e-0
1665213915,C;S;V;F,17.1,0x00c000,-35.1,0.00e-0
1665213916,C;S;V;F,16.8,0x00c000,,0.00e-0
1665213917,C;S;V;F,16.9,0x00c000,-35.1,0.00e-0
1665213918,C;S;V;F,16.8,0x00c000,-35.4,0.00e-0
1665213919,C;S;V;F,16.4,0x00c000,-35.6,0.00e-0
1665213920,C;S;V;F,16.4,0x00c000,-35.7,0.00e-0
1665213921,C;S;V;F,16.2,0x00c000,-36.0,0.00e-0
1665213922,C;S;V;F,16.0,0x00c000,-36.0,0.00e-0
1665213923,C;S;V;F,16.4,0x00c000,-35.9,0.00e-0
1665213924,C;S;V;F,16.4,0x00c000,-35.8,0.00e-0
1665213925,C;S;V;F,16.7,0x00c000,-35.4,0.00e-0
1665213926,,16.5,0x00c000,-35.3,
1665213927,C;S;V;F,16.7,0x00c000,-35.5,0.00e-0
1665213928,C;S;V;F,16.7,0x00c000,-35.5,0.00e-0
1665213929,C;S;V;F,16.4,0x00c000,-35.6,0.00e-0
1665213930,C;S;V;F,,0x00c000,-35.9,0.00e-0
1665213931,C;S;V;F,16.3,0x00c000,,0.00e-0
1665213932,C;S;V;F,16.0,0x00c000,-36.4,0.00e-0
1665213933,C;S;V;F,15.9,0x00c000,-36.4,0.00e-0
1665213934,C;S;V;F,16.0,0x00c000,-36.3,0.00e-0
1665213935,C;S;V;F,16.0,0x00c000,-36.1,0.00e-0